Location: Huntington
(40.8831°N, 85.4975°W)
Time: 16:32:36
(UTC-04:00)

Envisat - Visible Passes

Search period start: 13 April 2021 00:00
Search period end: 23 April 2021 00:00
Orbit: 764 x 766 km, 98.1° (Epoch: 13 April)

Date Brightness Start Highest point End Pass type
(mag) Time Alt. Az. Time Alt. Az. Time Alt. Az.
15 Apr 5.8 06:05:43 10° NE 06:08:57 17° E 06:12:10 10° SE visible
17 Apr 5.2 06:30:08 10° NE 06:34:33 29° E 06:38:57 10° SSE visible
18 Apr 6.0 05:55:04 10° ENE 05:57:23 13° E 05:59:41 10° ESE visible
20 Apr 5.6 06:19:00 10° NE 06:23:01 23° E 06:27:01 10° SE visible
